[[{"header":{"parameterUnit":"m.s-1","parameterCategory":1,"la1":30.2991,"la2":30.254,"lo1":-89.0895,"lo2":-89.0444,"dy":0.0017,"dx":0.0017,"nx":28,"ny":28,"refTime":"2024-07-31T09:00:00:Z","depth":0,"parameterNumber":2,"parameterNumberName":"U-component_of_WINDS"},"data":[0,0,0,0,0,0,0,0,0,0,0,0,0,0,0,0,0,0,0,0,0,0,0,0,0,0,0,0,0,0,0,0,0,0,0,0,0,0,0,0,0,0,0,0,0,0,0,0,0,0,0,0,0,0,0,0,0,0,3.232,3.232,0,3.2396,3.2397,3.2397,3.2321,3.2318,3.2315,3.2312,3.239,3.2395,3.2399,0,0,0,0,0,0,0,0,0,0,0,0,0,3.2105,3.211,3.2319,3.232,3.2321,3.2396,3.2397,3.2398,3.2322,3.2318,3.2314,3.2311,3.2388,3.2394,3.24,0,0,0,0,0,0,0,0,0,0,0,0,0,3.2192,3.2111,3.2319,3.2292,3.2291,3.2395,3.2397,3.2398,3.2322,3.2318,3.2313,3.2309,3.2386,3.2394,3.2401,3.2536,0,0,3.2423,3.2426,0,0,0,0,0,0,0,0,3.2187,3.22,3.2295,3.2294,3.2293,3.2344,3.2349,3.2444,3.2324,3.231,3.2312,3.2307,3.2378,3.2386,3.241,3.2539,3.2543,3.2424,3.2428,3.2431,3.2433,0,0,0,0,0,0,0,3.2181,3.2196,3.235,3.2297,3.2295,3.2276,3.2283,3.2367,3.2369,3.2311,3.2306,3.2316,3.2377,3.2403,3.2411,3.2544,3.2423,3.243,3.2434,3.2437,3.2783,3.2788,0,0,0,0,0,0,3.2178,3.2191,3.2347,3.2352,3.2228,3.2283,3.2291,3.2332,3.2368,3.2369,3.232,3.2312,3.2393,3.2403,3.2414,3.2571,3.2431,3.2438,3.2442,3.2778,3.2784,3.2789,0,0,0,0,0,0,3.2174,3.2193,3.2344,3.227,3.2288,3.2292,3.2338,3.2336,3.2363,3.2374,3.2374,3.2347,3.239,3.2404,3.2505,3.2573,3.2441,3.2448,3.2773,3.278,3.2787,3.2889,0,0,0,0,0,0,3.2168,3.2192,3.2244,3.2272,3.2292,3.2435,3.2343,3.2341,3.2375,3.2366,3.2399,3.24,3.2387,3.2495,3.2512,3.2581,3.2454,3.2766,3.2776,3.2784,3.288,3.2899,3.2916,0,0,0,0,0,3.2161,3.227,3.2247,3.2266,3.2358,3.2439,3.2451,3.2434,3.2381,3.2433,3.244,3.2399,3.2563,3.2506,3.2525,3.2597,3.2762,3.2773,3.2784,3.2872,3.2895,3.2915,0,0,0,0,0,0,3.2251,3.2274,3.2248,3.237,3.2403,3.2426,3.2491,3.246,3.2509,3.2498,3.2475,3.2483,3.259,3.2603,3.2539,3.2727,3.2654,3.2669,3.2714,3.2737,3.2754,3.2748,3.246,0,0,0,0,0,3.2285,3.235,3.2366,3.2473,3.249,3.2488,3.2523,3.2507,3.254,3.2554,3.2568,3.2602,3.266,3.2699,3.2754,3.2882,3.2886,3.294,3.2958,3.2973,3.2986,3.3051,3.3074,3.2825,3.2825,3.2825,0,0,3.2356,3.2377,3.2419,3.2491,3.2515,3.2581,3.25,3.2575,3.2624,3.2565,3.2661,3.2673,3.2708,3.2822,3.2873,3.2837,3.3056,3.2986,3.2998,3.3003,3.3064,3.3088,3.3109,3.2832,3.2831,3.283,0,0,3.2519,3.2543,3.2632,3.2657,3.2694,3.2691,3.2712,3.274,3.2745,3.2841,3.2797,3.2854,3.2957,3.2983,3.3009,3.3179,3.3143,3.3198,3.3291,3.3355,3.3375,3.3392,3.345,3.3472,3.3211,3.3211,3.3212,0,3.2603,3.2703,3.2682,3.2759,3.2791,3.274,3.2829,3.2854,3.2907,3.293,3.2888,3.3013,3.3034,3.3152,3.3193,3.3217,3.3239,3.3194,3.3374,3.3391,3.3406,3.3462,3.3484,3.3218,3.3217,3.3216,3.3216,0,3.2802,3.2872,3.2939,3.299,3.303,3.3113,3.3104,3.3146,3.3126,3.3127,3.3223,3.3246,3.3303,3.333,3.3312,3.3445,3.3421,3.3377,3.3303,3.3437,3.3488,3.3509,3.3227,3.3224,3.3222,3.3221,0,0,3.3026,3.3063,3.3088,3.3109,3.3144,3.3197,3.3276,3.3332,3.3367,3.3405,3.3469,3.3555,3.3514,3.3544,3.3528,3.3585,3.3714,3.3534,3.3534,3.3564,3.3859,3.3891,3.3916,3.3691,3.3695,3.3698,3.3855,0,3.3188,3.3326,3.3309,3.3441,3.3503,3.3454,3.3523,3.3551,3.3554,3.3606,3.3609,3.3669,3.3612,3.3629,3.3683,3.3687,3.3773,3.3676,3.3749,3.3752,3.374,3.3943,3.3977,3.4125,3.3876,3.3879,3.3881,0,3.3397,3.344,3.3578,3.3601,3.3626,3.3689,3.3736,3.3787,3.3817,3.3815,3.3848,3.3821,3.3898,3.3823,3.3928,3.3862,3.3891,3.3898,3.3903,3.3908,3.3824,3.3952,3.4172,3.4193,3.3913,3.3911,3.3909,0,3.3543,3.3637,3.373,3.375,3.378,3.3824,3.3838,3.3864,3.3897,3.3939,3.3959,3.401,3.4037,3.4075,3.4062,3.4009,3.4169,3.4093,3.4168,3.4168,3.4203,3.4201,3.4429,3.4225,3.4224,3.4224,3.4223,0,3.3726,3.3811,3.3796,3.3853,3.3947,3.3925,3.4018,3.4026,3.4049,3.4106,3.4067,3.4121,3.4101,3.4153,3.4143,3.423,3.4243,3.4242,3.4238,3.4245,3.4245,3.4262,3.4251,3.423,3.4228,3.4227,3.4226,0,3.3905,3.3898,3.3997,3.4016,3.4022,3.409,3.4106,3.4159,3.4158,3.423,3.4246,3.4244,3.4303,3.4293,3.436,3.4352,3.446,3.4445,3.445,3.4446,3.452,3.4512,3.4766,3.4797,3.4574,3.4577,3.4578,0,3.4021,3.4086,3.4111,3.4146,3.4163,3.4221,3.4254,3.4234,3.427,3.4308,3.4356,3.4411,3.4455,3.4551,3.4555,3.4605,3.4589,3.4674,3.4596,3.4599,3.4587,3.4583,3.4588,3.4689,3.4692,3.4694,3.4696,0,3.4228,3.422,3.427,3.4318,3.4358,3.4395,3.4428,3.4458,3.4441,3.4483,3.4543,3.4577,3.4643,3.4698,3.4743,3.4756,3.4723,3.472,3.4739,3.4746,3.4746,3.4745,3.449,3.4714,3.4713,3.4711,3.471,3.4709,3.4377,3.4431,3.4457,3.4512,3.4534,3.4565,3.4615,3.4619,3.4669,3.4721,3.4706,3.4773,3.4798,3.4856,3.4874,3.4925,3.4894,3.4922,3.4929,3.4936,3.4944,3.4739,3.4934,3.4933,3.4933,3.4932,3.4932,0,3.458,3.4593,3.4644,3.4691,3.4734,3.4698,3.4732,3.477,3.4829,3.4856,3.4898,3.4966,3.5018,3.5025,3.5074,3.5113,3.5099,3.5127,3.5123,3.5126,3.4971,3.4948,3.5137,3.5137,3.5137,3.5137,3.5137,3.5137,3.469,3.4778,3.4773,3.4871,3.4883,3.4949,3.4971,3.4998,3.5019,3.5095,3.5138,3.5142,3.516,3.5209,3.5255,3.5255,3.5274,3.5308,3.5302,3.5158,3.5137,3.5117,3.5096,3.5313,3.5313,3.5452,3.5454,3.5455]},{"header":{"parameterUnit":"m.s-1","parameterCategory":1,"la1":30.2991,"la2":30.254,"lo1":-89.0895,"lo2":-89.0444,"dy":0.0017,"dx":0.0017,"nx":28,"ny":28,"refTime":"2024-07-31T09:00:00:Z","depth":0,"parameterNumber":3,"parameterNumberName":"V-component_of_WINDS"},"data":[0,0,0,0,0,0,0,0,0,0,0,0,0,0,0,0,0,0,0,0,0,0,0,0,0,0,0,0,0,0,0,0,0,0,0,0,0,0,0,0,0,0,0,0,0,0,0,0,0,0,0,0,0,0,0,0,0,0,2.1041,2.1041,0,2.1074,2.1075,2.1075,2.1015,2.1013,2.1011,2.1009,2.1044,2.1047,2.105,0,0,0,0,0,0,0,0,0,0,0,0,0,2.0925,2.0927,2.1041,2.1041,2.1042,2.1074,2.1075,2.1075,2.1015,2.1013,2.101,2.1008,2.1043,2.1046,2.105,0,0,0,0,0,0,0,0,0,0,0,0,0,2.0968,2.0928,2.1041,2.1016,2.1014,2.1074,2.1075,2.1075,2.1016,2.1013,2.101,2.1007,2.1042,2.1046,2.105,2.1137,0,0,2.1063,2.1065,0,0,0,0,0,0,0,0,2.0966,2.0973,2.1019,2.1018,2.1015,2.1037,2.1046,2.1096,2.1017,2.1015,2.1009,2.1005,2.1044,2.1048,2.1061,2.1138,2.114,2.1064,2.1066,2.1068,2.1069,0,0,0,0,0,0,0,2.0963,2.0971,2.1054,2.102,2.1018,2.1003,2.1005,2.1055,2.1046,2.1015,2.1011,2.1015,2.1043,2.1057,2.1061,2.114,2.1063,2.1067,2.107,2.1071,2.1288,2.1291,0,0,0,0,0,0,2.0963,2.0969,2.1053,2.1055,2.0983,2.1007,2.101,2.1033,2.1046,2.1044,2.1018,2.1013,2.1051,2.1057,2.1062,2.1163,2.1068,2.1072,2.1074,2.1285,2.1289,2.1292,0,0,0,0,0,0,2.0961,2.0971,2.1052,2.1011,2.102,2.1012,2.1039,2.1036,2.105,2.1048,2.1046,2.1034,2.1049,2.1057,2.1118,2.1163,2.1074,2.1078,2.1281,2.1286,2.129,2.1366,0,0,0,0,0,0,2.0958,2.0971,2.1004,2.1012,2.1022,2.1107,2.1041,2.1038,2.1057,2.105,2.1063,2.1062,2.1047,2.1112,2.1122,2.1168,2.1081,2.1277,2.1283,2.1289,2.1359,2.1373,2.1384,0,0,0,0,0,2.0954,2.1025,2.1006,2.1016,2.1063,2.111,2.1116,2.1098,2.1061,2.1094,2.1092,2.1061,2.1157,2.1119,2.113,2.1177,2.1274,2.1281,2.1288,2.1354,2.137,2.1384,0,0,0,0,0,0,2.1023,2.1025,2.1005,2.108,2.1095,2.11,2.1141,2.1116,2.1142,2.1135,2.1111,2.1114,2.118,2.1185,2.1143,2.126,2.1209,2.1219,2.1255,2.1271,2.1283,2.128,2.1084,0,0,0,0,0,2.1047,2.1084,2.1084,2.1151,2.1159,2.1149,2.1169,2.1153,2.1168,2.1174,2.1177,2.1193,2.1226,2.1249,2.1279,2.1359,2.1361,2.1397,2.141,2.142,2.1429,2.147,2.1486,2.1316,2.1316,2.1316,0,0,2.1097,2.1103,2.1128,2.1165,2.1175,2.1214,2.1155,2.1199,2.1228,2.1181,2.1239,2.1242,2.1257,2.1328,2.136,2.1334,2.1476,2.1429,2.1437,2.1441,2.1479,2.1495,2.1509,2.1321,2.132,2.1319,0,0,2.1208,2.1216,2.1272,2.1282,2.1298,2.129,2.1303,2.1311,2.1311,2.1369,2.1334,2.1367,2.1426,2.1438,2.1452,2.1565,2.1537,2.1575,2.164,2.1681,2.1694,2.1706,2.1745,2.176,2.1584,2.1584,2.1584,0,2.1268,2.1326,2.1304,2.135,2.1366,2.1325,2.138,2.1392,2.1417,2.1429,2.14,2.147,2.1478,2.1551,2.1578,2.1591,2.1605,2.1574,2.1694,2.1706,2.1716,2.1753,2.1768,2.1589,2.1588,2.1588,2.1587,0,2.1398,2.1439,2.1481,2.1505,2.1527,2.1578,2.1563,2.1587,2.1569,2.1564,2.1623,2.163,2.1661,2.1677,2.166,2.1746,2.173,2.1698,2.1646,2.1737,2.1772,2.1786,2.1595,2.1594,2.1592,2.1591,0,0,2.1555,2.1565,2.1581,2.159,2.1603,2.1634,2.1682,2.1711,2.1732,2.175,2.1789,2.1838,2.1808,2.1824,2.1808,2.1843,2.1931,2.1807,2.1806,2.1829,2.2025,2.2049,2.2066,2.1912,2.1915,2.1917,2.2023,0,2.1664,2.1747,2.1728,2.1809,2.1846,2.1805,2.1847,2.1859,2.1856,2.1885,2.1881,2.1916,2.1874,2.1883,2.1916,2.1913,2.197,2.1905,2.1948,2.195,2.1945,2.2084,2.211,2.221,2.2037,2.2039,2.2041,0,2.1804,2.1826,2.1911,2.1916,2.193,2.1968,2.1992,2.2021,2.2034,2.2028,2.2045,2.2022,2.2068,2.2016,2.2079,2.2036,2.2052,2.2053,2.2056,2.206,2.2001,2.2091,2.2242,2.2257,2.2062,2.206,2.2059,0,2.1908,2.1959,2.2016,2.2026,2.2034,2.2061,2.2065,2.2075,2.2093,2.2114,2.2125,2.2152,2.2166,2.2187,2.2171,2.2134,2.2237,2.2183,2.2233,2.2234,2.2257,2.2256,2.2412,2.2268,2.2268,2.2268,2.2267,0,2.2032,2.2086,2.2063,2.2098,2.2156,2.2133,2.2191,2.2191,2.2199,2.2233,2.22,2.2233,2.221,2.224,2.2228,2.2281,2.2288,2.2285,2.2281,2.2288,2.2288,2.2298,2.2291,2.2272,2.2271,2.227,2.2269,0,2.2159,2.2147,2.2206,2.2207,2.2209,2.2252,2.2253,2.2285,2.2278,2.2321,2.233,2.2319,2.2353,2.2339,2.2375,2.2367,2.2435,2.2422,2.2431,2.2428,2.2478,2.2474,2.2647,2.2668,2.251,2.2512,2.2513,0,2.2239,2.2279,2.2285,2.2305,2.2311,2.2344,2.2362,2.234,2.236,2.2376,2.2406,2.2437,2.246,2.2516,2.2511,2.2538,2.2525,2.2584,2.2529,2.2534,2.2525,2.2523,2.2526,2.2595,2.2597,2.2598,2.2599,0,2.2382,2.2373,2.24,2.2425,2.2447,2.2465,2.248,2.2499,2.2477,2.2501,2.2535,2.2553,2.2589,2.2619,2.2643,2.2647,2.262,2.2616,2.2629,2.2637,2.264,2.2638,2.2461,2.2613,2.2611,2.261,2.261,2.2609,2.2488,2.2521,2.2529,2.256,2.2569,2.2583,2.2613,2.2609,2.2637,2.2664,2.2649,2.2688,2.2697,2.2726,2.2733,2.2763,2.274,2.2759,2.2764,2.2769,2.2775,2.2635,2.2767,2.2767,2.2767,2.2766,2.2766,0,2.2628,2.2631,2.2659,2.2681,2.2705,2.2676,2.2691,2.2713,2.2748,2.2759,2.2782,2.282,2.2849,2.2846,2.2872,2.2896,2.2884,2.2904,2.2902,2.2903,2.2795,2.278,2.2913,2.2913,2.2913,2.2913,2.2913,2.2913,2.2704,2.2758,2.2749,2.2807,2.2809,2.2847,2.2857,2.287,2.2879,2.2922,2.2946,2.2943,2.2949,2.2975,2.3,2.2998,2.3009,2.3033,2.3027,2.2925,2.2911,2.2897,2.2884,2.3036,2.3036,2.3132,2.3133,2.3134]}]]